Hail, Saudi Arabia

11:55 AM +03 on July 24, 2017 (GMT +0300)
Hail

Weather History for OEHL - February, 2013

Change the Weather History Date:

Tuesday, February 19, 2013

  Actual Average Record
Temperature  
Mean Temperature 58 °F -  
Max Temperature 71 °F 70 °F 84 °F (2005)
Min Temperature 46 °F 45 °F 21 °F (2017)
Degree Days  
Heating Degree Days 6    
Growing Degree Days 8 (Base 50)    
Moisture  
Dew Point 31 °F    
Average Humidity 31    
Maximum Humidity 54    
Minimum Humidity 13    
Precipitation  
Precipitation 0.00 in - - ()
Sea Level Pressure  
Sea Level Pressure 29.96 in    
Wind  
Wind Speed 5 mph ()    
Max Wind Speed 12 mph    
Max Gust Speed -    
Visibility 6.1 miles    
Events      
Averages and records for this station are not official NWS values.
T = Trace of Precipitation, MM = Missing Value Source: Averaged Metar Reports

Daily Weather History Graph

Daily Weather History Graph

Search for Another Location

Airport or City:

Trip Planner

Search our weather history database for the weather conditions in past years. The results will help you decide how hot, cold, wet, or windy it might be!

Date:

Astronomy

Feb. 19, 2013 Rise Set
Actual Time 6:46 AM +03 6:07 PM +03
Civil Twilight 6:23 AM +03 6:31 PM +03
Nautical Twilight 5:55 AM +03 6:58 PM +03
Astronomical Twilight 5:28 AM +03 7:25 PM +03
Moon 12:37 PM +03 (2/19) 1:45 AM +03 (2/19)
Length of Visible Light 12h 08m
Length of Day
11h 20m
Waxing Gibbous, 64% of the Moon is Illuminated
Feb 19
Waxing Gibbous
Feb 25
Full
Mar 5
Last Quarter
Mar 11
New
Mar 19
First Quarter

Hourly Weather History & Observations

Time (+03) Temp. Dew Point Humidity Pressure Visibility Wind Dir Wind Speed Gust Speed Precip Events Conditions
12:00 AM 59 °F 36 °F 29%  in 6 mi North 2.3 mph - -   Partly Cloudy
12:00 AM 59.0 °F 35.6 °F 42% 29.95 in 6.2 mi North 2.3 mph - N/A   Scattered Clouds
1:00 AM 57.2 °F 32.0 °F 38% 29.95 in 6.2 mi SSW 2.3 mph - N/A   Scattered Clouds
2:00 AM 57.2 °F 32.0 °F 38% 29.95 in 6.2 mi West 2.3 mph - N/A   Scattered Clouds
3:00 AM 55 °F 32 °F 29%  in 6 mi West 2.3 mph - -   Scattered Clouds
3:00 AM 55.4 °F 32.0 °F 41% 29.95 in 6.2 mi West 2.3 mph - N/A   Partly Cloudy
4:00 AM 53.6 °F 32.0 °F 44% 29.92 in - ESE 2.3 mph - N/A   Clear
5:00 AM 53.6 °F 33.8 °F 47% 29.92 in - SE 6.9 mph - N/A   Clear
6:00 AM 51 °F 32 °F 36%  in 6 mi ESE 4.6 mph - -  
6:00 AM 51.8 °F 32.0 °F 47% 29.92 in - ESE 4.6 mph - N/A   Clear
7:00 AM 48.2 °F 32.0 °F 54% 29.95 in - East 4.6 mph - N/A   Clear
8:00 AM 51.8 °F 32.0 °F 47% 29.98 in - SE 6.9 mph - N/A   Clear
9:00 AM 59 °F 34 °F 27%  in 6 mi SE 6.9 mph - -  
9:00 AM 59.0 °F 33.8 °F 39% 29.98 in - SE 6.9 mph - N/A   Clear
10:00 AM 66.2 °F 33.8 °F 30% 29.98 in - Calm Calm - N/A   Clear
11:00 AM 68.0 °F 33.8 °F 28% 29.98 in - North 6.9 mph - N/A   Clear
12:00 PM 71 °F 34 °F 15%  in 6 mi North 9.2 mph - -  
12:00 PM 69.8 °F 33.8 °F 27% 29.98 in - North 9.2 mph - N/A   Clear
1:00 PM 71.6 °F 30.2 °F 22% 29.95 in - North 9.2 mph - N/A   Clear
2:00 PM 71.6 °F 28.4 °F 20% 29.95 in - NNW 6.9 mph - N/A   Clear
3:00 PM 71.6 °F 28.4 °F 20% 29.92 in - WNW 6.9 mph - N/A   Clear
4:00 PM 71.6 °F 28.4 °F 20% 29.92 in - WNW 9.2 mph - N/A   Clear
5:00 PM 68.0 °F 26.6 °F 21% 29.95 in - WNW 11.5 mph - N/A   Clear
6:00 PM 66 °F 27 °F 13%  in 6 mi WNW 11.5 mph - -  
6:00 PM 66.2 °F 26.6 °F 23% 29.95 in - WNW 11.5 mph - N/A   Clear
7:00 PM 64.4 °F 26.6 °F 24% 29.98 in - NW 9.2 mph - N/A   Clear
8:00 PM 62.6 °F 26.6 °F 26% 30.01 in - WNW 6.9 mph - N/A   Clear
9:00 PM 61 °F 28 °F 18%  in 6 mi WNW 11.5 mph - -  
9:00 PM 60.8 °F 28.4 °F 29% 30.04 in - WNW 11.5 mph - N/A   Clear
10:00 PM 59.0 °F 26.6 °F 29% 30.04 in - WNW 11.5 mph - N/A   Clear
11:00 PM 59.0 °F 26.6 °F 29% 30.04 in - WNW 6.9 mph - N/A   Clear